COSMOS 1275 DEB, 17632

Orbit data source: Space-Track

COSMOS 1275 DEB, 17632 is space debris in LEO originally from a launch on Thu, 04 Jun 1981 UTC launched from the Plesetsk Missile And Space Complex (PKMTR). Debris objects in space refer to the collection of defunct objects orbiting the Earth. Examples of debris include non-operational satellites, rocket bodies, and fragments generated from explosions, collisions, or faulty payload assembly.

Loading next visibility...
Identifier
17632, 1981-053LB
Orbit
LEO
Country
Flag of CISCIS
Related business
Manufacturer
Unknown
Mission
Spacecraft
Bus & Motor
Unknown
Mass
Unknown
Launch date (UTC)
1981-06-04 (45 years ago)
Launch vehicle
Unknown
Launch site
Plesetsk Missile And Space Complex (PKMTR)
Object type
Payload
Rocket body
Debris
Shape & HBR
Unknown shape, 0.1 m
Radar Cross Section
Small (<0.1 m²)

Expand to show TLE details & history
Last TLE update: 19 hours ago

TLE from 19 hours ago
0 COSMOS 1275 DEB
1 17632U 81053LB  26033.68728237  .00000571  00000-0  66728-3 0  9998
2 17632  83.0843 301.7983 0141531 242.8386 133.4417 13.62900854 17364
Epoch: 2026-02-02T16:29Z
TLE epoch observation values (Epoch: 2026-02-02T16:29:41.196Z)
Latitude
17.30025°
Longitude
-76.34834°
Altitude
1,100.292 km
Speed
7.268 km/s
True Right ascension
20h 15m 48s
True Declination
17° 12' 26"
Sunlit
Object was in daylight at epoch
Visualization orbit readout
Latitude
Unknown
Longitude
Unknown
Altitude
Unknown
Speed
Unknown
Apparent Right ascension
Unknown
Apparent Declination
Unknown
Sunlit
N/A
Visualization observer readout
Local Sidereal Time
13:45:00
Azimuth
Unknown
Elevation
Unknown
Doppler factor
Unknown
Orbital elements
Apogee altitude
1,127.067 km
Perigee altitude
917.588 km
Semi-major axis
7,400.465 km
Eccentricity
0.01415
Inclination
83.0843°
RAAN
301.7983°
Arg. of periapsis
242.8386°
True anomaly
134.60503°
Mean anomaly
133.4417°
Eccentric anomaly
134.02478°
Mean motion
3.40922 °/min
Orbital period
105.6 mins
BSTAR
0.00066728
Loading maneuver chart data...
Computing Atmospheric mass density...

Documentation

Showing up to 5 results
|